Location: OLV Amersfoort
(52.1552°N, 5.3872°E)
Time: 06:51:47
(UTC+02:00)

ISS - Visible Passes

Search period start: 28 July 2016 00:00
Search period end: 07 August 2016 00:00
Orbit: 401 x 404 km, 51.6° (Epoch: 27 July)

Date Brightness Start Highest point End Pass type
(mag) Time Alt. Az. Time Alt. Az. Time Alt. Az.
28 Jul -3.5 01:15:12 10° W 01:18:28 83° S 01:21:45 10° E visible
28 Jul -3.2 02:51:38 10° W 02:55:13 52° SSE 02:58:03 10° ESE visible
28 Jul -1.9 04:28:35 10° W 04:30:50 18° SW 04:33:07 10° S visible
28 Jul -2.5 22:46:28 10° SW 22:49:22 30° SSE 22:52:17 10° E visible
29 Jul -3.5 00:22:17 10° WSW 00:25:32 76° S 00:27:58 17° E visible
29 Jul -2.1 01:58:41 10° W 02:00:31 30° W 02:00:31 30° W visible
29 Jul -3.4 23:29:24 10° WSW 23:32:38 63° SSE 23:35:53 10° E visible
30 Jul -3.5 01:05:45 10° W 01:09:01 82° S 01:09:02 81° S visible
30 Jul -3.1 22:36:36 10° SW 22:39:46 47° SSE 22:42:55 10° E visible
31 Jul -3.5 00:12:49 10° W 00:16:05 84° S 00:17:40 28° E visible
31 Jul -1.2 01:49:14 10° W 01:50:14 18° W 01:50:14 18° W visible
31 Jul -3.5 23:19:52 10° W 23:23:08 79° S 23:26:20 10° E visible
01 Aug -3.0 00:56:17 10° W 00:58:56 52° WSW 00:58:56 52° WSW visible
01 Aug -3.4 22:26:58 10° WSW 22:30:12 67° SSE 22:33:28 10° E visible
02 Aug -3.5 00:03:20 10° W 00:06:36 80° S 00:07:37 41° ESE visible
02 Aug -0.7 01:39:49 10° W 01:40:12 12° W 01:40:12 12° W visible
02 Aug -3.4 23:10:23 10° W 23:13:39 84° S 23:16:20 14° E visible
03 Aug -2.2 00:46:49 10° W 00:48:55 33° WSW 00:48:55 33° WSW visible
03 Aug -3.4 22:17:26 10° W 22:20:42 81° S 22:23:58 10° E visible
03 Aug -3.4 23:53:51 10° W 23:57:05 64° SSW 23:57:38 52° SE visible
04 Aug -3.4 23:00:53 10° W 23:04:09 77° S 23:06:24 19° ESE visible
05 Aug -1.5 00:37:24 10° W 00:38:58 22° WSW 00:38:58 22° WSW visible
05 Aug -3.4 22:07:56 10° W 22:11:11 84° S 22:14:28 10° E visible
05 Aug -3.0 23:44:22 10° W 23:47:30 44° SSW 23:47:45 43° S visible
06 Aug -3.2 22:51:23 10° W 22:54:37 60° SSW 22:56:32 22° ESE visible
